{"data":{"norad_id":63188,"intl_designator":"2025-048F","name":"STARLINK-11642 [DTC]","alt_names":[],"object_type":"PAYLOAD","status":"ACTIVE","operator":null,"country":"US","launch_date":"2025-03-13","launch_site_code":"AFETR","launch_vehicle":null,"mission":null,"orbit_class":"UNKNOWN","rcs_meters":null,"size_class":null,"mass_kg":null,"dimensions":null,"purposes":["comms"],"wikipedia_slug":null,"has_3d_model":false,"image_url":null,"decayed_at":null,"tle_current":{"epoch":"2026-05-25T04:51:17.622720Z","epoch_age_seconds":68012,"freshness":"FRESH","line1":"1 63188U 25048F   26145.20228730  .00187297  00000+0  14229-2 0  9990","line2":"2 63188  42.9968 218.7925 0000562  25.1686 334.9209 15.70965837 70559","mean_motion":15.70965837,"eccentricity":5.62e-5,"inclination_deg":42.9968,"raan_deg":218.7925,"arg_perigee_deg":25.1686,"mean_anomaly_deg":334.9209,"bstar":0.0014229,"rev_number":7055,"period_min":91.663355503001,"perigee_km":355.75695377017,"apogee_km":356.51388599017,"semimajor_km":6734.2724198802,"source":"CELESTRAK","updated_at":"2026-05-25T13:38:19.919743Z"}}}